| time (UTC) | temp C | wind direction | speed KPH | gust KPH | rain 1hr cm | rain 24hr cm | rain mn cm | humidity % | barometer mb |
| 20260906225850 | 26 | 182 | 3.2 | 3.2 | 0.00 | 0.00 | 0.00 | 46 | 1027.5 |
| 20260906225345 | 26 | 152 | 3.2 | 3.2 | 0.00 | 0.00 | 0.00 | 47 | 1027.4 |
| 20260906224841 | 26 | 287 | 4.8 | 9.7 | 0.00 | 0.00 | 0.00 | 47 | 1027.4 |
| 20260906224337 | 26 | 141 | 4.8 | 8.0 | 0.00 | 0.00 | 0.00 | 46 | 1027.6 |
| 20260906223833 | 26 | 60 | 9.7 | 12.9 | 0.00 | 0.00 | 0.00 | 45 | 1027.8 |
| 20260906223329 | 27 | 178 | 3.2 | 4.8 | 0.00 | 0.00 | 0.00 | 45 | 1027.6 |
| 20260906222827 | 26 | 18 | 3.2 | 4.8 | 0.00 | 0.00 | 0.00 | 45 | 1027.6 |
| 20260906222327 | 27 | 30 | 4.8 | 4.8 | 0.00 | 0.00 | 0.00 | 44 | 1027.6 |
| 20260906221824 | 26 | 194 | 3.2 | 4.8 | 0.00 | 0.00 | 0.00 | 45 | 1027.9 |
| 20260906221319 | 26 | 7 | 12.9 | 14.5 | 0.00 | 0.00 | 0.00 | 45 | 1027.9 |
| 20260906220814 | 26 | 157 | 1.6 | 1.6 | 0.00 | 0.00 | 0.00 | 46 | 1027.9 |
| 20260906220309 | 27 | 15 | 12.9 | 14.5 | 0.00 | 0.00 | 0.00 | 45 | 1028.0 |
| 20260906215808 | 27 | 148 | 4.8 | 4.8 | 0.00 | 0.00 | 0.00 | 43 | 1028.0 |
| 20260906215306 | 27 | 212 | 6.4 | 8.0 | 0.00 | 0.00 | 0.00 | 44 | 1028.3 |
| 20260906214801 | 27 | 222 | 6.4 | 8.0 | 0.00 | 0.00 | 0.00 | 44 | 1028.3 |
| 20260906214250 | 27 | 172 | 3.2 | 4.8 | 0.00 | 0.00 | 0.00 | 45 | 1028.1 |
| 20260906213743 | 26 | 11 | 8.0 | 11.3 | 0.00 | 0.00 | 0.00 | 46 | 1028.5 |
| 20260906213237 | 26 | 126 | 8.0 | 12.9 | 0.00 | 0.00 | 0.00 | 46 | 1028.6 |
| 20260906212734 | 26 | 50 | 3.2 | 3.2 | 0.00 | 0.00 | 0.00 | 45 | 1028.4 |
| 20260906212231 | 26 | 53 | 3.2 | 4.8 | 0.00 | 0.00 | 0.00 | 45 | 1028.4 |
| 20260906211730 | 27 | 161 | 6.4 | 9.7 | 0.00 | 0.00 | 0.00 | 45 | 1028.5 |
| 20260906211225 | 26 | 185 | 3.2 | 8.0 | 0.00 | 0.00 | 0.00 | 46 | 1028.6 |
| 20260906210720 | 26 | 119 | 8.0 | 11.3 | 0.00 | 0.00 | 0.00 | 45 | 1028.9 |
| 20260906210215 | 25 | 100 | 8.0 | 14.5 | 0.00 | 0.00 | 0.00 | 46 | 1028.5 |
| 20260906205710 | 25 | 162 | 6.4 | 8.0 | 0.00 | 0.00 | 0.00 | 48 | 1028.9 |
| 20260906205207 | 26 | 126 | 4.8 | 4.8 | 0.00 | 0.00 | 0.00 | 46 | 1028.6 |
| 20260906204706 | 26 | 220 | 1.6 | 1.6 | 0.00 | 0.00 | 0.00 | 46 | 1028.6 |
| 20260906204201 | 26 | 196 | 9.7 | 14.5 | 0.00 | 0.00 | 0.00 | 45 | 1028.8 |
| 20260906203701 | 26 | 155 | 9.7 | 12.9 | 0.00 | 0.00 | 0.00 | 45 | 1028.8 |
| 20260906203155 | 26 | 132 | 12.9 | 16.1 | 0.00 | 0.00 | 0.00 | 45 | 1028.9 |
| 20260906202653 | 26 | 66 | 14.5 | 17.7 | 0.00 | 0.00 | 0.00 | 45 | 1028.8 |
| 20260906202151 | 26 | 306 | 3.2 | 4.8 | 0.00 | 0.00 | 0.00 | 46 | 1028.8 |
| 20260906201647 | 26 | 185 | 3.2 | 4.8 | 0.00 | 0.00 | 0.00 | 45 | 1028.8 |
| 20260906201145 | 26 | 111 | 14.5 | 14.5 | 0.00 | 0.00 | 0.00 | 46 | 1029.0 |
| 20260906200642 | 26 | 66 | 6.4 | 9.7 | 0.00 | 0.00 | 0.00 | 46 | 1028.9 |
| 20260906200138 | 25 | 34 | 14.5 | 20.9 | 0.00 | 0.00 | 0.00 | 46 | 1029.0 |
| 20260906195633 | 25 | 6 | 6.4 | 17.7 | 0.00 | 0.00 | 0.00 | 47 | 1028.9 |
| 20260906195129 | 25 | 341 | 6.4 | 12.9 | 0.00 | 0.00 | 0.00 | 46 | 1029.0 |
| 20260906194625 | 25 | 55 | 4.8 | 4.8 | 0.00 | 0.00 | 0.00 | 46 | 1029.0 |
| 20260906194121 | 25 | 219 | 3.2 | 4.8 | 0.00 | 0.00 | 0.00 | 47 | 1029.0 |
| 20260906193621 | 26 | 103 | 8.0 | 11.3 | 0.00 | 0.00 | 0.00 | 45 | 1029.1 |
| 20260906193116 | 26 | 10 | 8.0 | 11.3 | 0.00 | 0.00 | 0.00 | 45 | 1028.9 |
| 20260906192612 | 26 | 117 | 3.2 | 4.8 | 0.00 | 0.00 | 0.00 | 44 | 1028.9 |
| 20260906192110 | 26 | 21 | 9.7 | 11.3 | 0.00 | 0.00 | 0.00 | 44 | 1028.9 |
| 20260906191606 | 26 | 92 | 4.8 | 4.8 | 0.00 | 0.00 | 0.00 | 43 | 1028.9 |
| 20260906191105 | 26 | 40 | 11.3 | 12.9 | 0.00 | 0.00 | 0.00 | 44 | 1029.0 |
| 20260906190605 | 26 | 0 | 4.8 | 9.7 | 0.00 | 0.00 | 0.00 | 43 | 1029.3 |
| 20260906190100 | 26 | 219 | 0.0 | 1.6 | 0.00 | 0.00 | 0.00 | 43 | 1029.0 |
| 20260906185558 | 26 | 143 | 8.0 | 12.9 | 0.00 | 0.00 | 0.00 | 43 | 1029.4 |
| 20260906185058 | 26 | 92 | 8.0 | 11.3 | 0.00 | 0.00 | 0.00 | 44 | 1029.4 |
| 20260906184552 | 26 | 43 | 9.7 | 16.1 | 0.00 | 0.00 | 0.00 | 44 | 1029.5 |
| 20260906184048 | 26 | 124 | 3.2 | 4.8 | 0.00 | 0.00 | 0.00 | 45 | 1029.3 |
| 20260906183544 | 26 | 93 | 4.8 | 9.7 | 0.00 | 0.00 | 0.00 | 40 | 1029.7 |
| 20260906183040 | 27 | 131 | 4.8 | 8.0 | 0.00 | 0.00 | 0.00 | 38 | 1029.5 |
| 20260906182540 | 26 | 199 | 4.8 | 4.8 | 0.00 | 0.00 | 0.00 | 39 | 1029.9 |
| 20260906182031 | 26 | 65 | 4.8 | 8.0 | 0.00 | 0.00 | 0.00 | 42 | 1029.9 |
| 20260906181526 | 26 | 185 | 4.8 | 4.8 | 0.00 | 0.00 | 0.00 | 40 | 1030.0 |
| 20260906181022 | 26 | 174 | 4.8 | 9.7 | 0.00 | 0.00 | 0.00 | 44 | 1030.0 |
| 20260906180516 | 26 | 189 | 0.0 | 1.6 | 0.00 | 0.00 | 0.00 | 42 | 1029.8 |
| 20260906180015 | 26 | 192 | 0.0 | 0.0 | 0.00 | 0.00 | 0.00 | 43 | 1030.2 |
| 20260906175508 | 26 | 218 | 4.8 | 8.0 | 0.00 | 0.00 | 0.00 | 43 | 1030.3 |
| 20260906175003 | 26 | 231 | 4.8 | 4.8 | 0.00 | 0.00 | 0.00 | 43 | 1030.3 |
| 20260906174502 | 26 | 49 | 9.7 | 14.5 | 0.00 | 0.00 | 0.00 | 42 | 1030.4 |
| 20260906173956 | 26 | 32 | 4.8 | 4.8 | 0.00 | 0.00 | 0.00 | 44 | 1030.2 |
| 20260906173452 | 26 | 1 | 4.8 | 4.8 | 0.00 | 0.00 | 0.00 | 43 | 1030.7 |
| 20260906172951 | 25 | 35 | 3.2 | 3.2 | 0.00 | 0.00 | 0.00 | 46 | 1030.8 |
| 20260906172447 | 25 | 313 | 4.8 | 4.8 | 0.00 | 0.00 | 0.00 | 44 | 1030.9 |
| 20260906171942 | 25 | 249 | 6.4 | 11.3 | 0.00 | 0.00 | 0.00 | 46 | 1030.8 |
| 20260906171437 | 25 | 33 | 9.7 | 11.3 | 0.00 | 0.00 | 0.00 | 45 | 1031.2 |
| 20260906170933 | 25 | 164 | 4.8 | 4.8 | 0.00 | 0.00 | 0.00 | 44 | 1031.0 |
| 20260906170429 | 25 | 189 | 0.0 | 1.6 | 0.00 | 0.00 | 0.00 | 45 | 1030.9 |
| 20260906165926 | 25 | 192 | 1.6 | 1.6 | 0.00 | 0.00 | 0.00 | 44 | 1031.3 |
| 20260906165425 | 25 | 102 | 1.6 | 1.6 | 0.00 | 0.00 | 0.00 | 47 | 1031.0 |
| 20260906164920 | 24 | 335 | 8.0 | 11.3 | 0.00 | 0.00 | 0.00 | 47 | 1031.3 |
| 20260906164418 | 25 | 12 | 3.2 | 4.8 | 0.00 | 0.00 | 0.00 | 46 | 1031.3 |
| 20260906163915 | 23 | 109 | 1.6 | 1.6 | 0.00 | 0.00 | 0.00 | 48 | 1031.3 |
| 20260906163411 | 23 | 48 | 6.4 | 8.0 | 0.00 | 0.00 | 0.00 | 47 | 1031.2 |
| 20260906162909 | 22 | 152 | 3.2 | 4.8 | 0.00 | 0.00 | 0.00 | 52 | 1031.3 |
| 20260906162407 | 22 | 244 | 4.8 | 8.0 | 0.00 | 0.00 | 0.00 | 51 | 1031.5 |
| 20260906161903 | 22 | 348 | 3.2 | 4.8 | 0.00 | 0.00 | 0.00 | 51 | 1031.3 |
| 20260906161401 | 22 | 329 | 4.8 | 8.0 | 0.00 | 0.00 | 0.00 | 51 | 1031.4 |
| 20260906160901 | 22 | 27 | 3.2 | 3.2 | 0.00 | 0.00 | 0.00 | 51 | 1031.3 |
| 20260906160354 | 21 | 347 | 1.6 | 3.2 | 0.00 | 0.00 | 0.00 | 53 | 1031.2 |
| 20260906155853 | 21 | 13 | 4.8 | 4.8 | 0.00 | 0.00 | 0.00 | 53 | 1031.0 |
| 20260906155347 | 21 | 307 | 4.8 | 4.8 | 0.00 | 0.00 | 0.00 | 53 | 1031.4 |
| 20260906154843 | 21 | 45 | 3.2 | 3.2 | 0.00 | 0.00 | 0.00 | 53 | 1031.0 |
| 20260906154337 | 21 | 123 | 0.0 | 0.0 | 0.00 | 0.00 | 0.00 | 58 | 1031.3 |
| 20260906153836 | 22 | 265 | 0.0 | 0.0 | 0.00 | 0.00 | 0.00 | 56 | 1031.4 |
| 20260906153336 | 21 | 191 | 0.0 | 0.0 | 0.00 | 0.00 | 0.00 | 55 | 1031.4 |
| 20260906152831 | 19 | 188 | 0.0 | 0.0 | 0.00 | 0.00 | 0.00 | 60 | 1031.4 |
| 20260906152326 | 19 | 148 | 0.0 | 0.0 | 0.00 | 0.00 | 0.00 | 60 | 1031.5 |
| 20260906151825 | 15 | 182 | 0.0 | 0.0 | 0.00 | 0.00 | 0.00 | 70 | 1031.3 |
| 20260906151321 | 13 | 108 | 0.0 | 0.0 | 0.00 | 0.00 | 0.00 | 93 | 1031.3 |
| 20260906150816 | 13 | 43 | 0.0 | 0.0 | 0.00 | 0.00 | 0.00 | 99 | 1031.5 |
| 20260906150312 | 16 | 182 | 0.0 | 0.0 | 0.00 | 0.00 | 0.00 | 99 | 1031.7 |
| 20260906145811 | 15 | 188 | 0.0 | 0.0 | 0.00 | 0.00 | 0.00 | 99 | 1031.4 |
| 20260906145309 | 15 | 195 | 0.0 | 0.0 | 0.00 | 0.00 | 0.00 | 99 | 1031.4 |
| 20260906144805 | 14 | 208 | 0.0 | 0.0 | 0.00 | 0.00 | 0.00 | 99 | 1031.7 |
| 20260906144300 | 13 | 209 | 0.0 | 0.0 | 0.00 | 0.00 | 0.00 | 99 | 1031.7 |
| 20260906143759 | 13 | 209 | 0.0 | 0.0 | 0.00 | 0.00 | 0.00 | 99 | 1031.3 |
| 20260906143256 | 12 | 214 | 0.0 | 0.0 | 0.00 | 0.00 | 0.00 | 99 | 1031.3 |
| 20260906142756 | 12 | 214 | 0.0 | 0.0 | 0.00 | 0.00 | 0.00 | 99 | 1031.7 |
| 20260906142252 | 12 | 216 | 0.0 | 0.0 | 0.00 | 0.00 | 0.00 | 99 | 1031.7 |
| 20260906141750 | 12 | 210 | 0.0 | 0.0 | 0.00 | 0.00 | 0.00 | 99 | 1031.3 |
| 20260906141245 | 12 | 209 | 0.0 | 0.0 | 0.00 | 0.00 | 0.00 | 99 | 1031.5 |
| 20260906140744 | 12 | 213 | 0.0 | 0.0 | 0.00 | 0.00 | 0.00 | 99 | 1031.5 |
| 20260906140239 | 11 | 210 | 0.0 | 0.0 | 0.00 | 0.00 | 0.00 | 99 | 1031.5 |
| 20260906135736 | 10 | 210 | 0.0 | 0.0 | 0.00 | 0.00 | 0.00 | 99 | 1031.4 |
| 20260906135232 | 10 | 189 | 0.0 | 0.0 | 0.00 | 0.00 | 0.00 | 99 | 1031.3 |
| 20260906134728 | 10 | 194 | 0.0 | 0.0 | 0.00 | 0.00 | 0.00 | 99 | 1031.5 |
| 20260906134223 | 10 | 212 | 0.0 | 0.0 | 0.00 | 0.00 | 0.00 | 99 | 1031.4 |
| 20260906133718 | 10 | 212 | 0.0 | 0.0 | 0.00 | 0.00 | 0.00 | 99 | 1031.0 |
| 20260906133214 | 9 | 207 | 0.0 | 0.0 | 0.00 | 0.00 | 0.00 | 99 | 1031.7 |
| 20260906132709 | 9 | 179 | 0.0 | 0.0 | 0.00 | 0.00 | 0.00 | 99 | 1031.4 |
| 20260906132204 | 8 | 190 | 0.0 | 0.0 | 0.00 | 0.00 | 0.00 | 99 | 1030.9 |
| 20260906131700 | 8 | 185 | 0.0 | 0.0 | 0.00 | 0.00 | 0.00 | 99 | 1031.3 |
| 20260906131155 | 8 | 213 | 0.0 | 0.0 | 0.00 | 0.00 | 0.00 | 99 | 1031.3 |
| 20260906130650 | 8 | 192 | 0.0 | 0.0 | 0.00 | 0.00 | 0.00 | 99 | 1031.0 |
| 20260906130145 | 8 | 193 | 0.0 | 0.0 | 0.00 | 0.00 | 0.00 | 99 | 1031.0 |
| 20260906125643 | 8 | 202 | 0.0 | 0.0 | 0.00 | 0.00 | 0.00 | 99 | 1031.3 |
| 20260906125142 | 8 | 193 | 0.0 | 0.0 | 0.00 | 0.00 | 0.00 | 99 | 1031.2 |
| 20260906124638 | 8 | 196 | 0.0 | 0.0 | 0.00 | 0.00 | 0.00 | 99 | 1030.9 |
| 20260906124133 | 8 | 174 | 0.0 | 0.0 | 0.00 | 0.00 | 0.00 | 99 | 1030.9 |
| 20260906123632 | 8 | 180 | 0.0 | 0.0 | 0.00 | 0.00 | 0.00 | 99 | 1031.2 |
| 20260906123127 | 8 | 203 | 0.0 | 0.0 | 0.00 | 0.00 | 0.00 | 99 | 1031.2 |
| 20260906122626 | 8 | 208 | 0.0 | 0.0 | 0.00 | 0.00 | 0.00 | 99 | 1030.8 |
| 20260906122122 | 8 | 207 | 0.0 | 0.0 | 0.00 | 0.00 | 0.00 | 99 | 1031.0 |
| 20260906121618 | 8 | 208 | 0.0 | 0.0 | 0.00 | 0.00 | 0.00 | 99 | 1031.0 |
| 20260906121114 | 8 | 207 | 0.0 | 0.0 | 0.00 | 0.00 | 0.00 | 99 | 1031.0 |
| 20260906120609 | 8 | 181 | 0.0 | 0.0 | 0.00 | 0.00 | 0.00 | 99 | 1031.2 |
| 20260906120106 | 8 | 211 | 0.0 | 0.0 | 0.00 | 0.00 | 0.00 | 99 | 1031.0 |
| 20260906115601 | 9 | 203 | 0.0 | 0.0 | 0.00 | 0.00 | 0.00 | 99 | 1031.2 |
| 20260906115056 | 9 | 190 | 0.0 | 0.0 | 0.00 | 0.00 | 0.00 | 99 | 1031.2 |
| 20260906114555 | 9 | 184 | 0.0 | 0.0 | 0.00 | 0.00 | 0.00 | 99 | 1031.3 |
| 20260906114051 | 8 | 204 | 0.0 | 0.0 | 0.00 | 0.00 | 0.00 | 99 | 1031.2 |
| 20260906113550 | 9 | 216 | 0.0 | 0.0 | 0.00 | 0.00 | 0.00 | 99 | 1031.0 |
| 20260906113045 | 9 | 212 | 0.0 | 0.0 | 0.00 | 0.00 | 0.00 | 99 | 1031.2 |
| 20260906112540 | 9 | 215 | 0.0 | 0.0 | 0.00 | 0.00 | 0.00 | 99 | 1031.2 |
| 20260906112037 | 9 | 201 | 0.0 | 0.0 | 0.00 | 0.00 | 0.00 | 99 | 1031.2 |
| 20260906111536 | 9 | 188 | 0.0 | 0.0 | 0.00 | 0.00 | 0.00 | 99 | 1031.0 |
| 20260906111032 | 9 | 204 | 0.0 | 0.0 | 0.00 | 0.00 | 0.00 | 99 | 1031.2 |
| 20260906110531 | 9 | 212 | 0.0 | 0.0 | 0.00 | 0.00 | 0.00 | 99 | 1031.0 |
| 20260906110031 | 9 | 208 | 0.0 | 0.0 | 0.00 | 0.00 | 0.00 | 99 | 1030.8 |
| 20260906105526 | 9 | 211 | 0.0 | 0.0 | 0.00 | 0.00 | 0.00 | 99 | 1030.9 |
| 20260906105022 | 9 | 205 | 0.0 | 0.0 | 0.00 | 0.00 | 0.00 | 99 | 1030.8 |
| 20260906104520 | 9 | 184 | 0.0 | 0.0 | 0.00 | 0.00 | 0.00 | 99 | 1030.9 |
| 20260906104015 | 9 | 213 | 0.0 | 0.0 | 0.00 | 0.00 | 0.00 | 99 | 1030.9 |
| 20260906103513 | 9 | 197 | 0.0 | 0.0 | 0.00 | 0.00 | 0.00 | 99 | 1031.3 |
| 20260906103009 | 9 | 206 | 0.0 | 0.0 | 0.00 | 0.00 | 0.00 | 99 | 1030.7 |
| 20260906102509 | 9 | 197 | 0.0 | 0.0 | 0.00 | 0.00 | 0.00 | 99 | 1030.9 |
| 20260906102009 | 9 | 199 | 0.0 | 0.0 | 0.00 | 0.00 | 0.00 | 99 | 1030.9 |
| 20260906101504 | 9 | 214 | 0.0 | 0.0 | 0.00 | 0.00 | 0.00 | 99 | 1030.9 |
| 20260906100958 | 10 | 197 | 0.0 | 0.0 | 0.00 | 0.00 | 0.00 | 99 | 1031.0 |
| 20260906100454 | 9 | 185 | 0.0 | 0.0 | 0.00 | 0.00 | 0.00 | 99 | 1030.9 |
| 20260906095948 | 9 | 196 | 0.0 | 0.0 | 0.00 | 0.00 | 0.00 | 99 | 1030.9 |
| 20260906095444 | 10 | 210 | 0.0 | 0.0 | 0.00 | 0.00 | 0.00 | 99 | 1031.0 |
| 20260906094938 | 10 | 192 | 0.0 | 0.0 | 0.00 | 0.00 | 0.00 | 99 | 1030.9 |
| 20260906094431 | 10 | 208 | 0.0 | 0.0 | 0.00 | 0.00 | 0.00 | 99 | 1031.2 |
| 20260906093923 | 10 | 208 | 0.0 | 0.0 | 0.00 | 0.00 | 0.00 | 99 | 1031.0 |
| 20260906093419 | 10 | 200 | 0.0 | 0.0 | 0.00 | 0.00 | 0.00 | 99 | 1031.0 |
| 20260906092919 | 10 | 209 | 0.0 | 0.0 | 0.00 | 0.00 | 0.00 | 99 | 1031.2 |
| 20260906092418 | 10 | 215 | 0.0 | 0.0 | 0.00 | 0.00 | 0.00 | 99 | 1031.2 |
| 20260906091914 | 10 | 208 | 0.0 | 0.0 | 0.00 | 0.00 | 0.00 | 99 | 1031.2 |
| 20260906091410 | 10 | 205 | 0.0 | 0.0 | 0.00 | 0.00 | 0.00 | 99 | 1031.2 |
| 20260906090906 | 10 | 211 | 0.0 | 0.0 | 0.00 | 0.00 | 0.00 | 99 | 1030.8 |
| 20260906090406 | 10 | 208 | 0.0 | 0.0 | 0.00 | 0.00 | 0.00 | 99 | 1031.0 |
| 20260906085901 | 10 | 183 | 0.0 | 0.0 | 0.00 | 0.00 | 0.00 | 99 | 1030.9 |
| 20260906085400 | 10 | 217 | 0.0 | 0.0 | 0.00 | 0.00 | 0.00 | 99 | 1031.2 |
| 20260906084859 | 10 | 196 | 1.6 | 1.6 | 0.00 | 0.00 | 0.00 | 99 | 1030.9 |
| 20260906084354 | 10 | 209 | 0.0 | 0.0 | 0.00 | 0.00 | 0.00 | 99 | 1031.0 |
| 20260906083848 | 10 | 191 | 0.0 | 0.0 | 0.00 | 0.00 | 0.00 | 99 | 1030.9 |
| 20260906083344 | 10 | 206 | 0.0 | 0.0 | 0.00 | 0.00 | 0.00 | 99 | 1031.2 |
| 20260906082843 | 10 | 178 | 0.0 | 0.0 | 0.00 | 0.00 | 0.00 | 99 | 1030.9 |
| 20260906082338 | 10 | 195 | 0.0 | 0.0 | 0.00 | 0.00 | 0.00 | 99 | 1030.9 |
| 20260906081835 | 10 | 180 | 1.6 | 1.6 | 0.00 | 0.00 | 0.00 | 99 | 1031.2 |
| 20260906081330 | 10 | 128 | 0.0 | 0.0 | 0.00 | 0.00 | 0.00 | 99 | 1031.2 |
| 20260906080826 | 10 | 92 | 0.0 | 0.0 | 0.00 | 0.00 | 0.00 | 99 | 1030.9 |
| 20260906080322 | 10 | 201 | 0.0 | 0.0 | 0.00 | 0.00 | 0.00 | 99 | 1031.3 |
| 20260906075821 | 10 | 214 | 0.0 | 0.0 | 0.00 | 0.00 | 0.00 | 99 | 1031.2 |
| 20260906075316 | 10 | 209 | 0.0 | 0.0 | 0.00 | 0.00 | 0.00 | 99 | 1031.0 |
| 20260906074811 | 10 | 199 | 0.0 | 0.0 | 0.00 | 0.00 | 0.00 | 99 | 1031.3 |
| 20260906074311 | 10 | 200 | 0.0 | 0.0 | 0.00 | 0.00 | 0.00 | 99 | 1031.4 |
| 20260906073810 | 10 | 189 | 0.0 | 0.0 | 0.00 | 0.00 | 0.00 | 99 | 1031.5 |
| 20260906073305 | 10 | 166 | 0.0 | 0.0 | 0.00 | 0.00 | 0.00 | 99 | 1031.2 |
| 20260906072801 | 10 | 216 | 0.0 | 0.0 | 0.00 | 0.00 | 0.00 | 99 | 1031.4 |
| 20260906072257 | 10 | 207 | 0.0 | 0.0 | 0.00 | 0.00 | 0.00 | 99 | 1031.5 |
| 20260906071752 | 10 | 186 | 0.0 | 0.0 | 0.00 | 0.00 | 0.00 | 99 | 1031.5 |
| 20260906071252 | 10 | 199 | 0.0 | 0.0 | 0.00 | 0.00 | 0.00 | 99 | 1031.5 |
| 20260906070743 | 10 | 183 | 0.0 | 0.0 | 0.00 | 0.00 | 0.00 | 99 | 1031.5 |
| 20260906070238 | 11 | 204 | 0.0 | 0.0 | 0.00 | 0.00 | 0.00 | 99 | 1031.5 |
| 20260906065738 | 11 | 190 | 0.0 | 0.0 | 0.00 | 0.00 | 0.00 | 99 | 1031.5 |
| 20260906065233 | 11 | 165 | 0.0 | 0.0 | 0.00 | 0.00 | 0.00 | 99 | 1031.4 |
| 20260906064729 | 11 | 193 | 0.0 | 0.0 | 0.00 | 0.00 | 0.00 | 99 | 1031.5 |
| 20260906064224 | 11 | 192 | 0.0 | 0.0 | 0.00 | 0.00 | 0.00 | 99 | 1031.3 |
| 20260906063719 | 11 | 214 | 0.0 | 0.0 | 0.00 | 0.00 | 0.00 | 99 | 1031.7 |
| 20260906063215 | 11 | 197 | 0.0 | 0.0 | 0.00 | 0.00 | 0.00 | 99 | 1031.7 |
| 20260906062711 | 11 | 214 | 0.0 | 0.0 | 0.00 | 0.00 | 0.00 | 99 | 1031.8 |
| 20260906062210 | 11 | 196 | 0.0 | 0.0 | 0.00 | 0.00 | 0.00 | 99 | 1031.7 |
| 20260906061705 | 11 | 217 | 0.0 | 0.0 | 0.00 | 0.00 | 0.00 | 99 | 1031.7 |
| 20260906061201 | 11 | 219 | 0.0 | 0.0 | 0.00 | 0.00 | 0.00 | 99 | 1031.9 |
| 20260906060657 | 11 | 185 | 0.0 | 0.0 | 0.00 | 0.00 | 0.00 | 99 | 1031.8 |
| 20260906060154 | 11 | 205 | 0.0 | 0.0 | 0.00 | 0.00 | 0.00 | 99 | 1032.1 |
| 20260906055649 | 12 | 125 | 0.0 | 0.0 | 0.00 | 0.53 | 0.53 | 99 | 1031.8 |
| 20260906055144 | 12 | 209 | 0.0 | 0.0 | 0.00 | 0.53 | 0.53 | 99 | 1031.8 |
| 20260906054640 | 12 | 193 | 1.6 | 1.6 | 0.00 | 0.53 | 0.53 | 99 | 1031.9 |
| 20260906054134 | 12 | 201 | 1.6 | 1.6 | 0.00 | 0.53 | 0.53 | 99 | 1032.1 |
| 20260906053631 | 12 | 186 | 0.0 | 0.0 | 0.00 | 0.53 | 0.53 | 99 | 1032.1 |
| 20260906053126 | 12 | 183 | 1.6 | 3.2 | 0.00 | 0.53 | 0.53 | 99 | 1031.9 |
| 20260906052621 | 12 | 201 | 0.0 | 0.0 | 0.00 | 0.53 | 0.53 | 99 | 1031.9 |
| 20260906052118 | 12 | 219 | 0.0 | 0.0 | 0.00 | 0.53 | 0.53 | 99 | 1032.2 |
| 20260906051614 | 12 | 221 | 0.0 | 0.0 | 0.00 | 0.53 | 0.53 | 99 | 1032.3 |
| 20260906051109 | 12 | 133 | 6.4 | 8.0 | 0.00 | 0.53 | 0.53 | 99 | 1032.4 |
| 20260906050604 | 12 | 168 | 0.0 | 0.0 | 0.00 | 0.53 | 0.53 | 99 | 1032.2 |
| 20260906050059 | 12 | 175 | 0.0 | 0.0 | 0.00 | 0.53 | 0.53 | 99 | 1032.4 |
| 20260906045557 | 12 | 209 | 0.0 | 0.0 | 0.00 | 0.53 | 0.53 | 99 | 1032.7 |
| 20260906045053 | 13 | 208 | 1.6 | 3.2 | 0.00 | 0.53 | 0.53 | 99 | 1032.4 |
| 20260906044549 | 13 | 118 | 3.2 | 3.2 | 0.00 | 0.53 | 0.53 | 99 | 1032.4 |
| 20260906044044 | 13 | 220 | 3.2 | 3.2 | 0.00 | 0.53 | 0.53 | 99 | 1032.4 |
| 20260906043540 | 13 | 223 | 0.0 | 0.0 | 0.00 | 0.53 | 0.53 | 99 | 1032.3 |
| 20260906043036 | 13 | 215 | 0.0 | 0.0 | 0.13 | 0.53 | 0.53 | 99 | 1032.4 |
| 20260906042534 | 13 | 181 | 1.6 | 1.6 | 0.30 | 0.53 | 0.53 | 98 | 1032.3 |
| 20260906042029 | 13 | 221 | 0.0 | 0.0 | 1.37 | 0.51 | 0.51 | 97 | 1032.7 |
| 20260906041525 | 13 | 247 | 4.8 | 4.8 | 2.87 | 0.48 | 0.48 | 95 | 1032.4 |
| 20260906041025 | 15 | 241 | 6.4 | 8.0 | 1.50 | 0.25 | 0.25 | 89 | 1032.6 |
| 20260906040520 | 20 | 259 | 12.9 | 14.5 | 0.00 | 0.00 | 0.00 | 63 | 1031.8 |
| 20260906040016 | 20 | 282 | 8.0 | 9.7 | 0.00 | 0.00 | 0.00 | 51 | 1031.5 |
| 20260906035510 | 20 | 303 | 8.0 | 11.3 | 0.00 | 0.00 | 0.00 | 50 | 1031.3 |
| 20260906035006 | 20 | 213 | 4.8 | 4.8 | 0.00 | 0.00 | 0.00 | 50 | 1031.4 |
| 20260906034500 | 19 | 264 | 3.2 | 3.2 | 0.00 | 0.00 | 0.00 | 49 | 1031.2 |
| 20260906033955 | 18 | 240 | 6.4 | 8.0 | 0.00 | 0.00 | 0.00 | 50 | 1031.2 |
| 20260906033450 | 17 | 259 | 1.6 | 4.8 | 0.00 | 0.00 | 0.00 | 51 | 1031.2 |
| 20260906032946 | 17 | 153 | 3.2 | 4.8 | 0.00 | 0.00 | 0.00 | 52 | 1031.0 |
| 20260906032443 | 17 | 202 | 0.0 | 0.0 | 0.00 | 0.00 | 0.00 | 52 | 1030.9 |
| 20260906031942 | 17 | 207 | 0.0 | 0.0 | 0.00 | 0.00 | 0.00 | 52 | 1031.0 |
| 20260906031438 | 17 | 207 | 0.0 | 0.0 | 0.00 | 0.00 | 0.00 | 52 | 1031.2 |
| 20260906030933 | 17 | 227 | 0.0 | 1.6 | 0.00 | 0.00 | 0.00 | 52 | 1031.2 |
| 20260906030428 | 17 | 187 | 1.6 | 1.6 | 0.00 | 0.00 | 0.00 | 52 | 1030.9 |
| 20260906025922 | 17 | 217 | 0.0 | 0.0 | 0.00 | 0.00 | 0.00 | 51 | 1031.0 |
| 20260906025417 | 17 | 221 | 0.0 | 0.0 | 0.00 | 0.00 | 0.00 | 52 | 1030.7 |
| 20260906024915 | 17 | 221 | 0.0 | 0.0 | 0.00 | 0.00 | 0.00 | 51 | 1030.7 |
| 20260906024414 | 17 | 197 | 0.0 | 0.0 | 0.00 | 0.00 | 0.00 | 51 | 1030.5 |
| 20260906023905 | 17 | 219 | 0.0 | 0.0 | 0.00 | 0.00 | 0.00 | 51 | 1030.4 |
| 20260906023401 | 17 | 214 | 0.0 | 0.0 | 0.00 | 0.00 | 0.00 | 50 | 1030.5 |
| 20260906022900 | 17 | 208 | 0.0 | 0.0 | 0.00 | 0.00 | 0.00 | 50 | 1030.3 |
| 20260906022355 | 18 | 215 | 0.0 | 0.0 | 0.00 | 0.00 | 0.00 | 50 | 1030.3 |
| 20260906021851 | 18 | 191 | 0.0 | 0.0 | 0.00 | 0.00 | 0.00 | 49 | 1030.4 |
| 20260906021350 | 18 | 184 | 1.6 | 1.6 | 0.00 | 0.00 | 0.00 | 49 | 1030.4 |
| 20260906020845 | 18 | 214 | 0.0 | 0.0 | 0.00 | 0.00 | 0.00 | 49 | 1030.2 |
| 20260906020345 | 18 | 177 | 3.2 | 3.2 | 0.00 | 0.00 | 0.00 | 47 | 1030.0 |
| 20260906015839 | 18 | 196 | 0.0 | 0.0 | 0.00 | 0.00 | 0.00 | 48 | 1030.0 |
| 20260906015339 | 18 | 212 | 0.0 | 0.0 | 0.00 | 0.00 | 0.00 | 47 | 1029.9 |
| 20260906014839 | 18 | 206 | 0.0 | 0.0 | 0.00 | 0.00 | 0.00 | 48 | 1029.9 |
| 20260906014333 | 19 | 201 | 1.6 | 1.6 | 0.00 | 0.00 | 0.00 | 46 | 1029.9 |
| 20260906013830 | 20 | 195 | 0.0 | 0.0 | 0.00 | 0.00 | 0.00 | 45 | 1029.9 |
| 20260906013325 | 20 | 205 | 0.0 | 0.0 | 0.00 | 0.00 | 0.00 | 45 | 1029.9 |
| 20260906012820 | 20 | 224 | 0.0 | 0.0 | 0.00 | 0.00 | 0.00 | 44 | 1029.8 |
| 20260906012315 | 21 | 219 | 0.0 | 0.0 | 0.00 | 0.00 | 0.00 | 42 | 1029.9 |
| 20260906011810 | 22 | 218 | 0.0 | 0.0 | 0.00 | 0.00 | 0.00 | 41 | 1029.9 |
| 20260906011310 | 22 | 215 | 0.0 | 0.0 | 0.00 | 0.00 | 0.00 | 40 | 1029.9 |
| 20260906010806 | 23 | 216 | 0.0 | 0.0 | 0.00 | 0.00 | 0.00 | 39 | 1029.9 |
| 20260906010302 | 23 | 210 | 0.0 | 0.0 | 0.00 | 0.00 | 0.00 | 39 | 1029.7 |
| 20260906005757 | 23 | 208 | 0.0 | 0.0 | 0.00 | 0.00 | 0.00 | 38 | 1029.7 |
| 20260906005256 | 23 | 214 | 0.0 | 0.0 | 0.00 | 0.00 | 0.00 | 37 | 1029.9 |
| 20260906004755 | 23 | 77 | 1.6 | 3.2 | 0.00 | 0.00 | 0.00 | 37 | 1029.8 |
| 20260906004250 | 24 | 210 | 0.0 | 0.0 | 0.00 | 0.00 | 0.00 | 37 | 1029.8 |
| 20260906003749 | 24 | 215 | 0.0 | 0.0 | 0.00 | 0.00 | 0.00 | 37 | 1029.7 |
| 20260906003245 | 25 | 139 | 1.6 | 3.2 | 0.00 | 0.00 | 0.00 | 37 | 1029.8 |
| 20260906002740 | 25 | 217 | 1.6 | 1.6 | 0.00 | 0.00 | 0.00 | 36 | 1029.7 |
| 20260906002240 | 25 | 129 | 0.0 | 1.6 | 0.00 | 0.00 | 0.00 | 36 | 1029.7 |
| 20260906001736 | 25 | 164 | 1.6 | 3.2 | 0.00 | 0.00 | 0.00 | 36 | 1029.7 |
| 20260906001231 | 25 | 82 | 3.2 | 3.2 | 0.00 | 0.00 | 0.00 | 36 | 1029.7 |
| 20260906000726 | 25 | 33 | 1.6 | 3.2 | 0.00 | 0.00 | 0.00 | 35 | 1029.5 |
| 20260906000226 | 26 | 188 | 1.6 | 3.2 | 0.00 | 0.00 | 0.00 | 35 | 1029.5 |
| 20260905235721 | 26 | 179 | 4.8 | 8.0 | 0.00 | 0.00 | 0.00 | 34 | 1029.7 |
| 20260905235216 | 26 | 162 | 3.2 | 3.2 | 0.00 | 0.00 | 0.00 | 34 | 1029.8 |
| 20260905234711 | 26 | 146 | 4.8 | 4.8 | 0.00 | 0.00 | 0.00 | 34 | 1029.4 |
| 20260905234206 | 26 | 36 | 3.2 | 3.2 | 0.00 | 0.00 | 0.00 | 34 | 1029.4 |
| 20260905233702 | 27 | 163 | 1.6 | 3.2 | 0.00 | 0.00 | 0.00 | 33 | 1029.5 |
| 20260905233201 | 27 | 184 | 11.3 | 14.5 | 0.00 | 0.00 | 0.00 | 33 | 1029.3 |
| 20260905232656 | 27 | 196 | 3.2 | 3.2 | 0.00 | 0.00 | 0.00 | 33 | 1029.7 |
| 20260905232152 | 27 | 233 | 4.8 | 8.0 | 0.00 | 0.00 | 0.00 | 33 | 1029.3 |
| 20260905231648 | 27 | 227 | 1.6 | 1.6 | 0.00 | 0.00 | 0.00 | 33 | 1029.5 |
| 20260905231143 | 27 | 221 | 1.6 | 3.2 | 0.00 | 0.00 | 0.00 | 33 | 1029.4 |
| 20260905230639 | 27 | 170 | 1.6 | 3.2 | 0.00 | 0.00 | 0.00 | 33 | 1029.3 |
| 20260905230136 | 27 | 42 | 3.2 | 3.2 | 0.00 | 0.00 | 0.00 | 33 | 1029.3 |